Caldwell, NJ

5:22 PM EST on December 05, 2019 (GMT -0500)
Essex County

Weather History for KCDW - November, 2019

Change the Weather History Date:

Thursday, November 21, 2019

  Actual Average Record
Temperature  
Mean Temperature 44 °F -  
Max Temperature 54 °F 52 °F 75 °F (1985)
Min Temperature 35 °F 30 °F 13 °F (1951)
Degree Days  
Heating Degree Days 20    
Moisture  
Dew Point 31 °F    
Average Humidity 53    
Maximum Humidity 76    
Minimum Humidity 40    
Precipitation  
Precipitation 0.00 in - - ()
Sea Level Pressure  
Sea Level Pressure 30.13 in    
Wind  
Wind Speed 3 mph ()    
Max Wind Speed 6 mph    
Max Gust Speed -    
Visibility 10.0 miles    
Events      
Averages and records for this station are not official NWS values.
T = Trace of Precipitation, MM = Missing Value Source: Averaged Metar Reports

Daily Weather History Graph

Daily Weather History Graph

Search for Another Location

Airport or City:

Astronomy

Nov. 21, 2019 Rise Set
Actual Time 6:51 AM EST 4:34 PM EST
Civil Twilight 6:21 AM EST 5:04 PM EST
Nautical Twilight 5:47 AM EST 5:37 PM EST
Astronomical Twilight 5:14 AM EST 6:10 PM EST
Moon 12:40 AM EST (11/21) 2:04 PM EST (11/21)
Length of Visible Light 10h 43m
Length of Day
9h 43m
Waning Crescent, 30% of the Moon is Illuminated
Nov 21
Waning Crescent
Nov 26
New
Dec 4
First Quarter
Dec 12
Full
Dec 18
Last Quarter

Hourly Weather History & Observations

Time (EST) Temp. Windchill Dew Point Humidity Pressure Visibility Wind Dir Wind Speed Gust Speed Precip Events Conditions
12:53 AM 42.1 °F 40.2 °F 28.9 °F 60% 30.15 in 10.0 mi Variable 3.5 mph - N/A   Clear
1:53 AM 42.1 °F 38.4 °F 28.0 °F 58% 30.17 in 10.0 mi Variable 5.8 mph - N/A   Clear
2:53 AM 42.1 °F 40.2 °F 28.9 °F 60% 30.17 in 10.0 mi Variable 3.5 mph - N/A   Clear
3:53 AM 41.0 °F 38.0 °F 28.9 °F 62% 30.17 in 10.0 mi NNW 4.6 mph - N/A   Clear
4:53 AM 41.0 °F - 28.9 °F 62% 30.19 in 10.0 mi Calm Calm - N/A   Clear
5:53 AM 35.1 °F - 28.0 °F 76% 30.21 in 10.0 mi Calm Calm - N/A   Clear
7:53 AM 43.0 °F 41.3 °F 30.9 °F 62% 30.22 in 10.0 mi Variable 3.5 mph - N/A   Clear
9:53 AM 48.0 °F - 30.9 °F 52% 30.22 in 10.0 mi Calm Calm - N/A   Clear
10:53 AM 50.0 °F - 30.0 °F 46% 30.22 in 10.0 mi Variable 3.5 mph - N/A   Clear
11:53 AM 52.0 °F - 30.9 °F 45% 30.19 in 10.0 mi Variable 3.5 mph - N/A   Clear
1:53 PM 54.0 °F - 30.0 °F 40% 30.14 in 10.0 mi WSW 5.8 mph - N/A   Clear
2:53 PM 54.0 °F - 30.0 °F 40% 30.13 in 10.0 mi SW 4.6 mph - N/A   Clear
3:53 PM 54.0 °F - 30.9 °F 41% 30.12 in 10.0 mi WSW 5.8 mph - N/A   Clear
5:53 PM 51.1 °F - 33.1 °F 50% 30.11 in 10.0 mi SSW 3.5 mph - N/A   Clear
6:53 PM 51.1 °F - 33.1 °F 50% 30.10 in 10.0 mi Variable 3.5 mph - N/A   Clear
7:53 PM 51.1 °F - 33.1 °F 50% 30.09 in 10.0 mi Variable 4.6 mph - N/A   Clear
8:53 PM 50.0 °F - 33.1 °F 52% 30.06 in 10.0 mi Variable 4.6 mph - N/A   Mostly Cloudy
9:53 PM 50.0 °F - 33.1 °F 52% 30.04 in 10.0 mi SSW 5.8 mph - N/A   Scattered Clouds
10:53 PM 50.0 °F - 33.1 °F 52% 30.00 in 10.0 mi Variable 3.5 mph - N/A   Mostly Cloudy
11:53 PM 48.9 °F - 33.1 °F 54% 30.00 in 10.0 mi Variable 4.6 mph - N/A   Scattered Clouds